Location: Alta
(39.2070°N, 120.8111°W)
Time: 06:54:03
(UTC+00:00)

CZ-4B DEB - Pass Details

Date: 10 December 2023
Orbit: 838 x 858 km, 99.0° (Epoch: 02 March)

Event Time Altitude Azimuth Distance (km) Brightness Sun altitude
Rises 02:26:00 0° 146° (SE) 3,416 7.2 -19.9°
Reaches altitude 10° 02:28:27 10° 140° (SE) 2,485 6.4 -20.3°
Enters shadow 02:29:05 13° 137° (SE) 2,259 6.1 -20.4°
Exits shadow 02:32:57 42° 90° (E) 1,214 4.5 -21.2°
Maximum altitude 02:33:39 44° 69° (ENE) 1,178 4.5 -21.3°
Drops below altitude 10° 02:38:52 10° 360° (N) 2,501 6.5 -22.3°
Sets 02:41:21 0° 354° (N) 3,441 7.3 -22.8°
